LTG9831 SBBR-SBGR

Flight info

Callsign LTG9831
Flight time N/A
Altitude 36000
Route ENRUR UZ38 VUNOX
Aircraft B77L/H-SDE1E2E3FGHIJ2J3J4J5M1RWXY/LB1D1

Departure

Time 2026-05-01 14:02
Airport Presidente Juscelino Kubitschek International Airport (SBBR)

Arrival

Time N/A
Airport São Paulo/Guarulhos–Governor André Franco Montoro International Airport (SBGR)
Time Latitude Longitude Altitude Speed Heading
2026-05-01 13:51 -15.86712 -47.92237 3468 ft 0 kts 206°
2026-05-01 13:53 -15.86707 -47.92234 3468 ft 2 kts 206°
2026-05-01 13:54 -15.86692 -47.92227 3468 ft 2 kts 204°
2026-05-01 13:54 -15.86677 -47.92220 3466 ft 2 kts 202°
2026-05-01 13:54 -15.86662 -47.92214 3466 ft 2 kts 199°
2026-05-01 13:54 -15.86646 -47.92209 3465 ft 2 kts 192°
2026-05-01 13:55 -15.86629 -47.92207 3466 ft 2 kts 174°
2026-05-01 13:55 -15.86614 -47.92212 3465 ft 2 kts 129°
2026-05-01 13:55 -15.86609 -47.92221 3466 ft 1 kts 117°
2026-05-01 13:55 -15.86610 -47.92218 3464 ft 0 kts 117°
2026-05-01 13:56 -15.86611 -47.92216 3464 ft 3 kts 117°
2026-05-01 13:56 -15.86634 -47.92106 3468 ft 24 kts 89°
2026-05-01 13:56 -15.86617 -47.91892 3468 ft 29 kts 85°
2026-05-01 13:56 -15.86617 -47.91758 3469 ft 15 kts 107°
2026-05-01 13:57 -15.86734 -47.91705 3468 ft 29 kts 176°
2026-05-01 13:57 -15.86973 -47.91693 3469 ft 34 kts 174°
2026-05-01 13:57 -15.87203 -47.91676 3469 ft 33 kts 176°
2026-05-01 13:57 -15.87428 -47.91660 3468 ft 32 kts 176°
2026-05-01 13:58 -15.87641 -47.91648 3466 ft 28 kts 177°
2026-05-01 13:58 -15.87728 -47.91661 3468 ft 5 kts 252°
2026-05-01 13:58 -15.87746 -47.91793 3468 ft 33 kts 268°
2026-05-01 13:58 -15.87763 -47.92085 3472 ft 40 kts 265°
2026-05-01 13:59 -15.87782 -47.92364 3478 ft 37 kts 267°
2026-05-01 13:59 -15.87797 -47.92622 3479 ft 35 kts 266°
2026-05-01 13:59 -15.87813 -47.92861 3486 ft 32 kts 266°
2026-05-01 13:59 -15.87824 -47.93083 3488 ft 30 kts 267°
2026-05-01 14:00 -15.87836 -47.93281 3505 ft 25 kts 266°
2026-05-01 14:00 -15.87848 -47.93441 3511 ft 21 kts 265°
2026-05-01 14:00 -15.87859 -47.93583 3505 ft 18 kts 266°
2026-05-01 14:00 -15.87866 -47.93713 3513 ft 21 kts 266°
2026-05-01 14:01 -15.87882 -47.93931 3518 ft 33 kts 254°
2026-05-01 14:01 -15.88004 -47.93986 3519 ft 16 kts 171°
2026-05-01 14:01 -15.88052 -47.93906 3519 ft 17 kts 89°
2026-05-01 14:01 -15.88029 -47.93465 3507 ft 114 kts 86°
2026-05-01 14:02 -15.87964 -47.92305 3580 ft 200 kts 87°
2026-05-01 14:02 -15.87878 -47.90762 4450 ft 219 kts 88°
2026-05-01 14:02 -15.88201 -47.89267 6058 ft 218 kts 114°
2026-05-01 14:02 -15.89296 -47.88067 6677 ft 249 kts 147°
2026-05-01 14:03 -15.91020 -47.87517 7278 ft 270 kts 163°
2026-05-01 14:03 -15.92884 -47.87150 8071 ft 281 kts 165°
2026-05-01 14:03 -15.94842 -47.86782 8833 ft 289 kts 165°
2026-05-01 14:03 -15.96832 -47.86411 9163 ft 294 kts 165°
2026-05-01 14:04 -15.98892 -47.86017 9128 ft 297 kts 165°
2026-05-01 14:04 -16.00906 -47.85623 9149 ft 295 kts 164°
2026-05-01 14:04 -16.02920 -47.85229 9123 ft 291 kts 164°
2026-05-01 14:04 -16.04248 -47.84965 9142 ft 291 kts 164°
2026-05-01 14:05 -16.06897 -47.84426 9126 ft 291 kts 161°
2026-05-01 14:05 -16.08785 -47.83752 9453 ft 287 kts 152°
2026-05-01 14:05 -16.10614 -47.82896 10381 ft 292 kts 150°
2026-05-01 14:05 -16.12505 -47.81971 10990 ft 311 kts 150°
2026-05-01 14:06 -16.13858 -47.81305 11146 ft 331 kts 151°